Regional Weather Roundup
Issued by NWS Upton, NY

Current Version | Previous Version | Text Only | Print | Product List | Glossary On
Versions: 1 2 3 4 5 6 7 8 9 10 11 12 13 14 15 16 17 18 19 20 21 22 23 24 25 26 27
000
ASUS41 KOKX 160305
RWROKX
REGIONAL WEATHER ROUNDUP
NATIONAL WEATHER SERVICE NEW YORK NY
1100 PM EDT TUE APR 15 2014

NOTE: "FAIR" INDICATES FEW OR NO CLOUDS BELOW 12,000 FEET WITH NO
SIGNIFICANT WEATHER AND/OR OBSTRUCTIONS TO VISIBILITY.

NYZ071-072-176-178-NJZ106-104-160400-
NEW YORK CITY METRO AREA


CITY           SKY/WX    TMP DP  RH WIND       PRES   REMARKS
CENTRAL PARK   LGT SNOW  35  32  88 NW9G18    29.90R FOG     WCI  28
LAGUARDIA APRT LGT SNOW  37  32  82 NW24G31   29.87R WCI  26
KENNEDY INTL   LGT RAIN  39  34  82 NW24G36   29.87R WCI  28
NEWARK/LIBERTY LGTSLEET  36  33  89 NW22G29   29.90R FOG     WCI  25
TETERBORO      LGT SNOW  37  32  82 NW9       29.89R WCI  30
$$

NYZ177-179-078>081-160400-
LONG ISLAND NEW YORK

CITY           SKY/WX    TMP DP  RH WIND       PRES   REMARKS
FARMINGDALE    LGT RAIN  39  36  89 NW15G23   29.83R WCI  31
ISLIP          LGT RAIN  41  37  86 N20G25    29.81R FOG
SHIRLEY        RAIN      39  36  89 NW22G33   29.83R FOG     WCI  29
WESTHAMPTON    RAIN      41  37  86 NW23G31   29.81R FOG
MONTAUK POINT    N/A     42  39  89 NW21G32   29.76R
$$

NYZ052-065-067-160400-
HUDSON VALLEY

CITY           SKY/WX    TMP DP  RH WIND       PRES   REMARKS
WHITE PLAINS   LGTSLEET  34  32  92 NW10      29.82R FOG     WCI  26
NEWBURGH       LGT SNOW  34  34 100 NW12G18   29.87F WCI  25
MONTGOMERY     LGT SNOW  34  30  85 NW12G17   29.87F FOG     WCI  25
POUGHKEEPSIE   LGT SNOW  34  32  92 NW12      29.87S FOG     WCI  25
ALBANY         SNOW      29  26  89 W18       29.97R VSB 1/2 WCI  16
$$

NJZ001-105-106-008-010-013-015-019>022-104-160400-
NEW JERSEY

CITY           SKY/WX    TMP DP  RH WIND       PRES   REMARKS
NEWARK/LIBERTY LGTSLEET  36  33  89 NW22G29   29.90R FOG     WCI  25
TETERBORO      LGT SNOW  37  32  82 NW9       29.89R WCI  30
CALDWELL       LGT SNOW  34  32  92 NW6       29.90R FOG     WCI  29
MORRISTOWN     FLURRIES  37  34  87 N5        29.90R WCI  34
SOMERVILLE     NOT AVBL
LINDEN         RAIN      37  34  90 N14       29.92R WCI  28
SUSSEX         CLOUDY    36  29  75 N7G18     29.91S HAZE    WCI  30
ANDOVER          N/A     33  32  96 N7        29.90S WCI  27
TRENTON        LGT RAIN  36  34  92 NW10G18   29.91R WCI  28
MILLVILLE      RAIN      38  36  92 NW9       29.92R WCI  31
ATLANTIC CITY  RAIN      39  36  89 NW25G31   29.88R WCI  28
WRIGHTSTOWN    LGT RAIN  36  32  87 N7        29.90R WCI  30
TOMS RIVER     CLOUDY    37  34  87 NW6G16    29.90R WCI  33
BELMAR         CLOUDY    37  28  70 NW23G31   29.87R WCI  26
$$

PAZ047>061-062-071-160400-
EASTERN PENNSYLVANIA

CITY           SKY/WX    TMP DP  RH WIND       PRES   REMARKS
PHILADELPHIA   LGT RAIN  39  33  79 N20G28    29.94R WCI  29
ALLENTOWN      CLOUDY    34  30  85 NW12      29.96R WCI  25
SCRANTON       CLOUDY    32  24  72 NW17G31   29.97R WCI  21
$$

CTZ002-004>006-009-010-012-RIZ004-006-007-MAZ004-011-015-160400-
SOUTHERN NEW ENGLAND
 IN CT

CITY           SKY/WX    TMP DP  RH WIND       PRES   REMARKS
BRADLEY INTL   LGTSLEET  35  30  82 NW13G22   29.81R WCI  26
HARTFORD       RAIN      37  32  82 N14       29.82R WCI  28
DANBURY        LGT SNOW  34  32  92 NW10G20   29.83R FOG     WCI  26
WTRBRY/OXFORD  CLOUDY    34  27  75 N16G25    29.80F WCI  23
BRIDGEPORT     RAIN      39  34  82 NW17G26   29.81R WCI  30
MERIDEN        RAIN      37  31  78 N16G26    29.79S WCI  28
NEW HAVEN      LGT RAIN  39  33  79 NW17G31   29.80R WCI  30
CHESTER        HVY RAIN  36  36 100 N25G39    29.75R WCI  23
GROTON         HVY RAIN  41  40  96 NW18G29   29.73R FOG
WILLIMANTIC    RAIN      39  34  82 NW13G26   29.77R WCI  31

 IN RI

CITY           SKY/WX    TMP DP  RH WIND       PRES   REMARKS
PROVIDENCE     LGT RAIN  47  43  86 NW14G25   29.70R
BLOCK ISLAND   CLOUDY    43  39  87 NW21G29   29.69R
WESTERLY       LGT RAIN  42  42 100 NW13G29   29.71R

 IN MA

CITY           SKY/WX    TMP DP  RH WIND       PRES   REMARKS
BOSTON         LGT RAIN  50  46  86 W15G26    29.67R
WORCESTER      LGT RAIN  38  35  89 NW23G32   29.72R WCI  27
WESTFIELD      LGT RAIN  36  29  75 NW20G32   29.83R WCI  25
PROVINCETOWN   CLOUDY    55  54  94 MISG      29.62F
NANTUCKET      LGT RAIN  53  50  89 S28G36    29.67F FOG
$$

ANZ330-335-338-340-345-350-353-355-160400-
COASTAL MARINE OBSERVATIONS


STATION/POSITION TIME  SKY/WX   TEMP    WIND        PRES    VSBY  WAVE
                                AIR SEA DIR/SP/G                  HT/PER
                 (UTC)          (F)     (DEG/KT/KT) (MB)    (MI)  (FT/S)
NY HARB ENTRANCE 0300            39 42  310/ 25/ 29 1010.4
4S FIRE IS       0200               45                N/A           8/11
23SW MTP         0300            42 43  320/ 27/ 33 1005.8         10/10
HUDSON CANYON    0200            46 46  310/ 23/ 29 1005.8         12/10
EXECUTION ROCKS  0300            38 42  310/ 16/ 21   N/A
WESTERN LI SOUND 0300            40     310/ 16/ 17   N/A           1/ 3
CENTRAL LI SOUND 0200            40 42  340/ 21/ 27   N/A           3/ 4
EASTERN LI SOUND NOT AVBL
ROBBINS REEF     0300            35     330/ 18/ 24   N/A
$$


>>>>>>>>>>>>>>>>>>>>>>>>>>>> KEY <<<<<<<<<<<<<<<<<<<<<<<<<<<
>                                                          <
>     SKY/WX - SKY CONDITION/PRESENT WEATHER               <
>     TMP    - TEMPERATURE IN FAHRENHEIT                   <
>     DP     - DEWPOINT IN FAHRENHEIT                      <
>     RH     - RELATIVE HUMIDITY IN PERCENT                <
>     WIND   - DIRECTION AND SPEED IN MPH                  <
>     PRES   - MEAN SEA LEVEL PRESSURE IN INCHES OF HG     <
>     WCI    - WIND CHILL INDEX                            <
>     VSB    - VISIBILITY IN MILES                         <
>     HX     - HEAT INDEX                                  <
>     TC     - TEMPERATURE IN CELSIUS                      <
>     VRB    - VARIABLE WIND DIRECTION                     <
>                                                          <
>>>>>>>>>>>>>>>>>>>>>>>>>>>> KEY <<<<<<<<<<<<<<<<<<<<<<<<<<<





USA.gov is the U.S. government's official web portal to all federal, state and local government web resources and services.